Regional Weather Roundup
Issued by NWS

Home | Current Version | Previous Version | Text Only | Print | Product List | Glossary Off
Versions: 1 2 3 4 5 6 7 8 9 10 11 12 13 14 15 16 17 18 19 20 21 22 23 24 25 26 27

000
ASUS45 KBOU 200110
RWRCO

WEATHER ROUNDUP FOR COLORADO
NATIONAL WEATHER SERVICE DENVER/BOULDER CO
600 PM MST SUN NOV 19 2017

NOTE: "FAIR" INDICATES FEW OR NO CLOUDS BELOW 12000 FEET WITH NO
SIGNIFICANT WEATHER AND/OR OBSTRUCTIONS TO VISIBILITY.

COZ001>005-013-030-031-200200-
...NORTHWEST COLORADO...

CITY           SKY/WX    TMP DP  RH WIND       PRES   REMARKS
CRAIG          FAIR      25  17  72 SW5       30.13S WCI  19
HAYDEN         FAIR      26  20  77 SE3       30.14F
MEEKER         FAIR      32  18  56 CALM      30.14S
RABBIT EARS PA FAIR      23  10  58 W8        30.16F WCI  14
STEAMBOAT SPGS FAIR      28  19  69 CALM      30.14S
WALDEN         FAIR      32   7  34 SW16      30.12F WCI  21
$$

COZ006>008-011-200200-
...WEST CENTRAL VALLEYS...

CITY           SKY/WX    TMP DP  RH WIND       PRES   REMARKS
GRAND JUNCTION FAIR      32  14  47 CALM      30.18F
MONTROSE       FAIR      36  17  46 N3        30.21R
EAGLE          FAIR      33  21  61 E6        30.19R WCI  28
RIFLE          FAIR      32  24  72 S5        30.19S WCI  27
DELTA          FAIR      37  18  46 CALM      30.19R
NUCLA          FAIR      43   5  21 CALM      30.22S
$$

COZ017>023-064>068-200200-
...SOUTHWEST COLORADO...

CITY           SKY/WX    TMP DP  RH WIND       PRES   REMARKS
DURANGO        FAIR      40  14  34 CALM      30.18R
CORTEZ         FAIR      36  15  42 SW3       30.19S
PAGOSA SPRINGS FAIR      32  15  48 CALM      30.21R
TELLURIDE      FAIR      33   6  32 SE7       30.25S WCI  26
WOLF CREEK PAS FAIR      23   3  42 SW8       30.33R WCI  14
$$

COZ009-010-012-014-032>034-037-058>063-200200-
...CENTRAL COLORADO...

CITY           SKY/WX    TMP DP  RH WIND       PRES   REMARKS
ASPEN          FAIR      26  19  74 S8        30.17F WCI  18
BUENA VISTA    FAIR      37   4  24 NW9       30.15R
COPPER MTN     FAIR      25   1  36 MISG      30.23S
BERTHOUD PASS  FAIR      18   7  62 NW30      30.15S WCI  -2
COTTONWOOD PAS FAIR      39  -9  12 W14G26    30.17S
GUNNISON       FAIR      25  18  74 NW6       30.23S WCI  18
KREMMLING      FAIR      34  14  44 S3        30.15S
LEADVILLE      FAIR      25   2  37 N6        30.17F WCI  18
MONARCH PASS   FAIR      21   5  49 W31       30.33F WCI   3
SALIDA         FAIR      43  -1  16 SW13      30.20S
SUNLIGHT       FAIR      23   5  46 SW15G22   30.26R WCI  10
WILKERSON PASS FAIR      28  -9  19 W12G22    30.21S WCI  18
$$

COZ069>075-200200-
...SAN LUIS VALLEY/SANGRE DE CRISTO MOUNTAINS...

CITY           SKY/WX    TMP DP  RH WIND       PRES   REMARKS
ALAMOSA        FAIR      32  10  40 W3        30.16F
DEL NORTE      FAIR      27   5  39 W3        30.19S
LA VETA PASS   FAIR      30   1  29 SW16        N/A  WCI  19
SAGUACHE       FAIR      28   3  34 NE6       30.19R WCI  22
$$

COZ035-036-038>040-200200-
...NORTHERN COLORADO FRONT RANGE...

CITY           SKY/WX    TMP DP  RH WIND       PRES   REMARKS
DENVER INTL AP MOCLDY    52   3  13 W13       29.98S
DMNS CITY PARK   N/A     55  -3   9 N8G16     29.99R
AURORA         MOCLDY    49   9  20 S3        30.00S
FRONT RANGE AP MOCLDY    50  10  20 S6        29.99F
ERIE MUNI ARPT FAIR      53   0  11 SW10      30.04R
BOULDER MUN AP FAIR      52   5  15 W14       29.98R
CENTENNIAL     MOCLDY    45  18  34 S9        30.00S
BROOMFIELD     MOCLDY    52   1  12 CALM      30.01S
FORT COLLINS   FAIR      45  20  36 W6        29.95F
LONGMONT       FAIR      53   5  14 SW7       29.99S
$$

COZ041-046-047-076>085-087-088-200200-
...PIKES PEAK/PALMER DIVIDE AND SOUTHERN FOOTHILLS...

CITY           SKY/WX    TMP DP  RH WIND       PRES   REMARKS
COLO. SPRINGS  MOCLDY    49  10  20 S6        30.04R
A. F. ACADEMY  CLOUDY    48   2  15 N6        30.04S
SCHRIEVER AFB  MOCLDY    46   8  21 CALM      30.03F
CHEYENNE MTN   CLOUDY    47   6  19 CALM      30.00S
ELLICOTT       NOT AVBL
FALCON         FAIR      45   2  16 NW10      30.06S
FORT CARSON    MOCLDY    44  16  32 CALM      30.01S
LIMON          FAIR      31  14  49 CALM      30.00R
MONUMENT HILL  FAIR      41  10  28 SW8       30.06S
CANON CITY     FAIR      48  12  23 NW12      30.02S
WALSENBURG     NOT AVBL
TRINIDAD       FAIR      40  21  46 W12       30.04R
$$

COZ042>045-048>051-090-091-200200-
...NORTHEAST COLORADO...

CITY           SKY/WX    TMP DP  RH WIND       PRES   REMARKS
GREELEY ARPT   FAIR      38  25  59 NE6       29.96F
AKRON          FAIR      43  10  26 SW10      29.94F
BURLINGTON     FAIR      39  13  34 S12       29.98F
WRAY           NOT AVBL
YUMA           FAIR      37  16  41 SW8       29.94F
STERLING       FAIR      41  21  45 SW3       29.92S
HOLYOKE        FAIR      41  14  33 SW5       29.93S
FORT MORGAN    FAIR      44  14  29 W5        29.96R
$$

COZ086-089-092>099-200200-
...SOUTHEAST COLORADO...

CITY           SKY/WX    TMP DP  RH WIND       PRES   REMARKS
PUEBLO         FAIR      46  13  26 CALM      29.98S
LA JUNTA       FAIR      48  19  31 E6        29.98S
LAMAR          FAIR      39  11  31 S5        29.96F
SPRINGFIELD      N/A     43  16  33 S14       30.01S
$$




USA.gov is the U.S. government's official web portal to all federal, state and local government web resources and services.